{"data":{"norad_id":51956,"epoch":"2026-09-20T01:18:56.874816Z","epoch_age_seconds":94619,"freshness":"FRESH","line1":"1 51956U 22025A   26263.05482494  .00002265  00000+0  84723-4 0  9994","line2":"2 51956  53.1605 189.1058 0001371  87.5022 272.6137 15.31707249250954","mean_motion":15.31707249,"eccentricity":0.0001371,"inclination_deg":53.1605,"raan_deg":189.1058,"arg_perigee_deg":87.5022,"mean_anomaly_deg":272.6137,"bstar":8.4723e-5,"rev_number":25095,"period_min":94.012743031681,"perigee_km":469.7794083456,"apogee_km":471.65736449255,"semimajor_km":6848.8553864191,"source":"CELESTRAK","updated_at":"2026-09-20T09:00:39.975004Z"}}